Time,TemperatureF,DewpointF,PressureIn,WindDirection,WindDirectionDegrees,WindSpeedMPH,WindSpeedGustMPH,Humidity,HourlyPrecipIn,Conditions,Clouds,dailyrainin,SoftwareType,DateUTC
2013-09-16 00:05:00,56.8,52.0,30.24,NE,44,0.0,3.0,84,-99.99,,,0.00,1-wire,2013-09-16 05:05:00,
2013-09-16 00:11:00,56.9,52.0,30.24,NE,53,1.0,3.0,84,-99.99,,,0.00,1-wire,2013-09-16 05:11:00,
2013-09-16 00:16:00,56.9,51.9,30.24,NE,53,0.0,3.0,84,-99.99,,,0.00,1-wire,2013-09-16 05:16:00,
2013-09-16 00:22:00,56.9,51.8,30.24,ENE,60,0.0,3.0,83,-99.99,,,0.00,1-wire,2013-09-16 05:22:00,
2013-09-16 00:28:00,56.8,51.8,30.24,ENE,60,2.0,6.0,83,-99.99,,,0.00,1-wire,2013-09-16 05:28:00,
2013-09-16 00:34:00,56.7,51.6,30.25,ENE,60,2.0,9.0,83,-99.99,,,0.00,1-wire,2013-09-16 05:34:00,
2013-09-16 00:40:00,56.7,51.6,30.25,NE,51,0.0,3.0,83,-99.99,,,0.00,1-wire,2013-09-16 05:40:00,
2013-09-16 00:46:00,56.6,51.4,30.25,NE,51,2.0,6.0,83,-99.99,,,0.00,1-wire,2013-09-16 05:46:00,
2013-09-16 00:52:00,56.2,50.9,30.26,NE,49,2.0,9.0,82,-99.99,,,0.00,1-wire,2013-09-16 05:52:00,
2013-09-16 00:58:00,55.9,50.3,30.25,NE,49,1.0,3.0,81,-99.99,,,0.00,1-wire,2013-09-16 05:58:00,
2013-09-16 01:04:00,56.1,50.7,30.26,NE,49,2.0,9.0,82,-99.99,,,0.00,1-wire,2013-09-16 06:04:00,
2013-09-16 01:10:00,56.2,50.6,30.26,NE,49,2.0,8.0,82,-99.99,,,0.00,1-wire,2013-09-16 06:10:00,
2013-09-16 01:16:00,56.0,50.2,30.27,NE,49,1.0,6.0,81,-99.99,,,0.00,1-wire,2013-09-16 06:16:00,
2013-09-16 01:22:00,55.8,50.2,30.27,NE,46,2.0,6.0,81,-99.99,,,0.00,1-wire,2013-09-16 06:22:00,
2013-09-16 01:28:00,55.6,49.6,30.27,NE,46,2.0,12.0,80,-99.99,,,0.00,1-wire,2013-09-16 06:28:00,
2013-09-16 01:34:00,55.2,48.9,30.27,NE,46,2.0,6.0,79,-99.99,,,0.00,1-wire,2013-09-16 06:34:00,
2013-09-16 01:40:00,55.2,49.0,30.27,NE,41,2.0,6.0,80,-99.99,,,0.00,1-wire,2013-09-16 06:40:00,
2013-09-16 01:46:00,54.9,48.7,30.27,NE,41,1.0,6.0,80,-99.99,,,0.00,1-wire,2013-09-16 06:46:00,
2013-09-16 01:52:00,55.2,49.2,30.27,NE,43,0.0,3.0,80,-99.99,,,0.00,1-wire,2013-09-16 06:52:00,
2013-09-16 01:58:00,55.1,49.2,30.28,NE,43,0.0,3.0,80,-99.99,,,0.00,1-wire,2013-09-16 06:58:00,
2013-09-16 02:03:00,54.7,48.6,30.29,NE,43,2.0,6.0,80,-99.99,,,0.00,1-wire,2013-09-16 07:03:00,
2013-09-16 02:08:00,54.5,48.2,30.29,NE,44,0.0,3.0,79,-99.99,,,0.00,1-wire,2013-09-16 07:08:00,
2013-09-16 02:13:00,54.3,48.2,30.28,NE,44,1.0,6.0,80,-99.99,,,0.00,1-wire,2013-09-16 07:13:00,
2013-09-16 02:18:00,54.3,47.9,30.29,NE,44,1.0,3.0,79,-99.99,,,0.00,1-wire,2013-09-16 07:18:00,
2013-09-16 02:23:00,54.1,47.6,30.28,NE,50,1.0,3.0,79,-99.99,,,0.00,1-wire,2013-09-16 07:23:00,
2013-09-16 02:28:00,54.2,47.9,30.29,NE,50,0.0,3.0,79,-99.99,,,0.00,1-wire,2013-09-16 07:28:00,
2013-09-16 02:33:00,54.0,47.6,30.29,NE,50,0.0,5.0,79,-99.99,,,0.00,1-wire,2013-09-16 07:33:00,
2013-09-16 02:38:00,53.4,46.3,30.29,NE,55,3.0,9.0,77,-99.99,,,0.00,1-wire,2013-09-16 07:38:00,
2013-09-16 02:43:00,53.3,46.0,30.29,NE,55,1.0,3.0,76,-99.99,,,0.00,1-wire,2013-09-16 07:43:00,
2013-09-16 02:48:00,53.4,46.2,30.29,NE,55,1.0,3.0,76,-99.99,,,0.00,1-wire,2013-09-16 07:48:00,
2013-09-16 02:53:00,53.3,46.2,30.29,NE,49,2.0,6.0,77,-99.99,,,0.00,1-wire,2013-09-16 07:53:00,
2013-09-16 02:58:00,53.3,46.0,30.29,NE,49,2.0,6.0,76,-99.99,,,0.00,1-wire,2013-09-16 07:58:00,
2013-09-16 03:03:00,53.1,45.8,30.30,NE,49,1.0,3.0,76,-99.99,,,0.00,1-wire,2013-09-16 08:03:00,
2013-09-16 03:08:00,53.1,45.8,30.29,NE,37,2.0,6.0,76,-99.99,,,0.00,1-wire,2013-09-16 08:08:00,
2013-09-16 03:13:00,52.8,45.3,30.30,NE,37,1.0,6.0,76,-99.99,,,0.00,1-wire,2013-09-16 08:13:00,
2013-09-16 03:18:00,52.4,44.8,30.30,NE,37,1.0,6.0,75,-99.99,,,0.00,1-wire,2013-09-16 08:18:00,
2013-09-16 03:23:00,52.5,45.3,30.30,NE,35,3.0,6.0,77,-99.99,,,0.00,1-wire,2013-09-16 08:23:00,
2013-09-16 03:28:00,51.8,44.1,30.31,NE,35,1.0,3.0,75,-99.99,,,0.00,1-wire,2013-09-16 08:28:00,
2013-09-16 03:33:00,52.1,44.4,30.31,NE,35,1.0,3.0,75,-99.99,,,0.00,1-wire,2013-09-16 08:33:00,
2013-09-16 03:38:00,52.0,44.2,30.31,NE,38,2.0,6.0,75,-99.99,,,0.00,1-wire,2013-09-16 08:38:00,
2013-09-16 03:43:00,51.7,44.0,30.31,NE,38,1.0,3.0,75,-99.99,,,0.00,1-wire,2013-09-16 08:43:00,
2013-09-16 03:48:00,51.5,43.7,30.31,NE,38,2.0,6.0,75,-99.99,,,0.00,1-wire,2013-09-16 08:48:00,
2013-09-16 03:53:00,51.5,43.3,30.31,NE,37,2.0,6.0,73,-99.99,,,0.00,1-wire,2013-09-16 08:53:00,
2013-09-16 03:58:00,51.1,43.1,30.31,NE,37,3.0,8.0,74,-99.99,,,0.00,1-wire,2013-09-16 08:58:00,
2013-09-16 04:03:00,51.2,43.1,30.31,NE,37,1.0,3.0,74,-99.99,,,0.00,1-wire,2013-09-16 09:03:00,
2013-09-16 04:08:00,51.3,43.6,30.31,ENE,59,2.0,9.0,75,-99.99,,,0.00,1-wire,2013-09-16 09:08:00,
2013-09-16 04:13:00,51.0,43.1,30.32,ENE,59,1.0,6.0,74,-99.99,,,0.00,1-wire,2013-09-16 09:13:00,
2013-09-16 04:18:00,51.0,42.9,30.33,ENE,59,0.0,0.0,74,-99.99,,,0.00,1-wire,2013-09-16 09:18:00,
2013-09-16 04:23:00,51.0,43.0,30.32,ENE,60,1.0,6.0,74,-99.99,,,0.00,1-wire,2013-09-16 09:23:00,
2013-09-16 04:28:00,51.2,43.5,30.33,ENE,60,0.0,0.0,75,-99.99,,,0.00,1-wire,2013-09-16 09:28:00,
2013-09-16 04:33:00,51.0,43.3,30.33,ENE,60,1.0,3.0,75,-99.99,,,0.00,1-wire,2013-09-16 09:33:00,
2013-09-16 04:38:00,50.6,42.4,30.32,NE,56,3.0,9.0,73,-99.99,,,0.00,1-wire,2013-09-16 09:38:00,
2013-09-16 04:43:00,50.6,42.7,30.32,NE,56,1.0,3.0,74,-99.99,,,0.00,1-wire,2013-09-16 09:43:00,
2013-09-16 04:49:00,50.3,42.2,30.33,NE,56,1.0,3.0,74,-99.99,,,0.00,1-wire,2013-09-16 09:49:00,
2013-09-16 04:55:00,49.8,41.5,30.33,NE,53,2.0,9.0,73,-99.99,,,0.00,1-wire,2013-09-16 09:55:00,
2013-09-16 05:01:00,49.8,41.9,30.33,NE,53,1.0,6.0,74,-99.99,,,0.00,1-wire,2013-09-16 10:01:00,
2013-09-16 05:07:00,49.7,41.9,30.33,NE,46,0.0,0.0,74,-99.99,,,0.00,1-wire,2013-09-16 10:07:00,
2013-09-16 05:13:00,48.7,41.0,30.33,NE,46,2.0,6.0,75,-99.99,,,0.00,1-wire,2013-09-16 10:13:00,
2013-09-16 05:19:00,48.9,41.7,30.34,NE,46,1.0,3.0,76,-99.99,,,0.00,1-wire,2013-09-16 10:19:00,
2013-09-16 05:25:00,48.7,41.4,30.34,NE,37,0.0,3.0,76,-99.99,,,0.00,1-wire,2013-09-16 10:25:00,
2013-09-16 05:31:00,48.7,41.2,30.34,NE,37,1.0,3.0,75,-99.99,,,0.00,1-wire,2013-09-16 10:31:00,
2013-09-16 05:37:00,48.4,40.9,30.35,NE,42,2.0,6.0,75,-99.99,,,0.00,1-wire,2013-09-16 10:37:00,
2013-09-16 05:43:00,47.9,40.3,30.35,NE,42,0.0,3.0,75,-99.99,,,0.00,1-wire,2013-09-16 10:43:00,
2013-09-16 05:49:00,47.5,40.0,30.34,NE,42,1.0,3.0,75,-99.99,,,0.00,1-wire,2013-09-16 10:49:00,
2013-09-16 05:55:00,47.5,40.3,30.35,NNE,30,0.0,3.0,76,-99.99,,,0.00,1-wire,2013-09-16 10:55:00,
2013-09-16 06:01:00,47.4,40.1,30.35,NNE,30,2.0,6.0,76,-99.99,,,0.00,1-wire,2013-09-16 11:01:00,
2013-09-16 06:07:00,47.1,40.0,30.35,NNE,33,2.0,3.0,76,-99.99,,,0.00,1-wire,2013-09-16 11:07:00,
2013-09-16 06:13:00,47.0,40.0,30.35,NNE,33,2.0,6.0,77,-99.99,,,0.00,1-wire,2013-09-16 11:13:00,
2013-09-16 06:19:00,47.1,40.3,30.35,NNE,33,2.0,8.0,77,-99.99,,,0.00,1-wire,2013-09-16 11:19:00,
2013-09-16 06:25:00,46.8,40.2,30.35,NNE,23,2.0,6.0,78,-99.99,,,0.00,1-wire,2013-09-16 11:25:00,
2013-09-16 06:31:00,47.0,40.3,30.35,NNE,23,0.0,3.0,77,-99.99,,,0.00,1-wire,2013-09-16 11:31:00,
2013-09-16 06:37:00,47.1,40.8,30.35,NNE,23,0.0,3.0,78,-99.99,,,0.00,1-wire,2013-09-16 11:37:00,
2013-09-16 06:43:00,47.3,41.3,30.35,NNE,23,0.0,0.0,80,-99.99,,,0.00,1-wire,2013-09-16 11:43:00,
2013-09-16 06:49:00,46.7,40.7,30.36,NNE,23,1.0,3.0,80,-99.99,,,0.00,1-wire,2013-09-16 11:49:00,
2013-09-16 06:55:00,46.6,40.6,30.37,NNE,28,0.0,3.0,79,-99.99,,,0.00,1-wire,2013-09-16 11:55:00,
2013-09-16 07:00:00,46.5,40.7,30.37,NNE,28,1.0,3.0,80,-99.99,,,0.00,1-wire,2013-09-16 12:00:00,
2013-09-16 07:05:00,46.6,40.8,30.37,NNE,28,1.0,3.0,80,-99.99,,,0.00,1-wire,2013-09-16 12:05:00,
2013-09-16 07:10:00,46.5,40.6,30.37,NNE,15,1.0,5.0,80,-99.99,,,0.00,1-wire,2013-09-16 12:10:00,
2013-09-16 07:15:00,46.5,40.7,30.37,NNE,15,0.0,3.0,80,-99.99,,,0.00,1-wire,2013-09-16 12:15:00,
2013-09-16 07:20:00,46.7,40.9,30.37,NNE,15,0.0,3.0,80,-99.99,,,0.00,1-wire,2013-09-16 12:20:00,
2013-09-16 07:26:00,46.5,40.8,30.37,NNE,13,0.0,3.0,80,-99.99,,,0.00,1-wire,2013-09-16 12:26:00,
2013-09-16 07:32:00,46.7,40.8,30.38,NNE,13,1.0,6.0,80,-99.99,,,0.00,1-wire,2013-09-16 12:32:00,
2013-09-16 07:37:00,46.7,40.6,30.38,NNE,14,1.0,6.0,79,-99.99,,,0.00,1-wire,2013-09-16 12:37:00,
2013-09-16 07:42:00,47.0,41.0,30.38,NNE,14,0.0,3.0,80,-99.99,,,0.00,1-wire,2013-09-16 12:42:00,
2013-09-16 07:47:00,46.9,41.0,30.38,NNE,14,0.0,0.0,80,-99.99,,,0.00,1-wire,2013-09-16 12:47:00,
2013-09-16 07:52:00,47.3,41.5,30.38,NNE,14,0.0,0.0,80,-99.99,,,0.00,1-wire,2013-09-16 12:52:00,
2013-09-16 07:57:00,47.0,40.7,30.38,NNE,14,2.0,6.0,79,-99.99,,,0.00,1-wire,2013-09-16 12:57:00,
2013-09-16 08:02:00,47.2,41.0,30.38,NNE,14,2.0,6.0,79,-99.99,,,0.00,1-wire,2013-09-16 13:02:00,
2013-09-16 08:07:00,47.3,41.0,30.38,North,9,2.0,6.0,78,-99.99,,,0.00,1-wire,2013-09-16 13:07:00,
2013-09-16 08:12:00,47.5,40.8,30.38,North,9,1.0,3.0,77,-99.99,,,0.00,1-wire,2013-09-16 13:12:00,
2013-09-16 08:17:00,47.4,40.5,30.39,North,9,3.0,6.0,77,-99.99,,,0.00,1-wire,2013-09-16 13:17:00,
2013-09-16 08:22:00,47.9,41.1,30.39,NNE,30,1.0,3.0,77,-99.99,,,0.00,1-wire,2013-09-16 13:22:00,
2013-09-16 08:27:00,47.9,41.0,30.39,NNE,30,1.0,3.0,77,-99.99,,,0.00,1-wire,2013-09-16 13:27:00,
2013-09-16 08:32:00,48.0,41.1,30.39,NNE,30,2.0,6.0,77,-99.99,,,0.00,1-wire,2013-09-16 13:32:00,
2013-09-16 08:37:00,48.1,41.5,30.40,NNE,13,4.0,11.0,78,-99.99,,,0.00,1-wire,2013-09-16 13:37:00,
2013-09-16 08:42:00,48.3,41.5,30.40,NNE,13,1.0,3.0,77,-99.99,,,0.00,1-wire,2013-09-16 13:42:00,
2013-09-16 08:47:00,48.8,42.0,30.40,NNE,13,3.0,8.0,77,-99.99,,,0.00,1-wire,2013-09-16 13:47:00,
2013-09-16 08:52:00,48.8,41.7,30.40,NNE,15,3.0,6.0,76,-99.99,,,0.00,1-wire,2013-09-16 13:52:00,
2013-09-16 08:57:00,49.3,42.1,30.40,NNE,15,1.0,3.0,76,-99.99,,,0.00,1-wire,2013-09-16 13:57:00,
2013-09-16 09:02:00,49.4,42.0,30.40,NNE,15,1.0,3.0,75,-99.99,,,0.00,1-wire,2013-09-16 14:02:00,
2013-09-16 09:07:00,49.6,42.5,30.40,NNE,18,2.0,9.0,76,-99.99,,,0.00,1-wire,2013-09-16 14:07:00,
2013-09-16 09:12:00,49.5,41.9,30.40,NNE,18,3.0,8.0,75,-99.99,,,0.00,1-wire,2013-09-16 14:12:00,
2013-09-16 09:17:00,49.9,42.2,30.40,NNE,18,1.0,6.0,75,-99.99,,,0.00,1-wire,2013-09-16 14:17:00,
2013-09-16 09:22:00,50.5,42.8,30.40,NNE,26,1.0,3.0,75,-99.99,,,0.00,1-wire,2013-09-16 14:22:00,
2013-09-16 09:27:00,50.8,42.9,30.40,NNE,26,3.0,6.0,74,-99.99,,,0.00,1-wire,2013-09-16 14:27:00,
2013-09-16 09:32:00,50.8,42.7,30.40,NNE,26,1.0,3.0,74,-99.99,,,0.00,1-wire,2013-09-16 14:32:00,
2013-09-16 09:37:00,51.0,42.7,30.41,NNE,33,0.0,3.0,73,-99.99,,,0.00,1-wire,2013-09-16 14:37:00,
2013-09-16 09:42:00,51.6,43.7,30.41,NNE,33,1.0,3.0,74,-99.99,,,0.00,1-wire,2013-09-16 14:42:00,
2013-09-16 09:47:00,51.3,42.7,30.40,NNE,33,2.0,6.0,72,-99.99,,,0.00,1-wire,2013-09-16 14:47:00,
2013-09-16 09:52:00,51.9,43.6,30.41,NE,40,3.0,8.0,73,-99.99,,,0.00,1-wire,2013-09-16 14:52:00,
2013-09-16 09:57:00,52.4,43.3,30.40,NE,40,0.0,3.0,71,-99.99,,,0.00,1-wire,2013-09-16 14:57:00,
2013-09-16 10:03:00,52.7,43.5,30.40,NE,40,0.0,3.0,71,-99.99,,,0.00,1-wire,2013-09-16 15:03:00,
2013-09-16 10:09:00,52.9,44.2,30.41,NE,50,0.0,0.0,72,-99.99,,,0.00,1-wire,2013-09-16 15:09:00,
2013-09-16 10:15:00,53.6,44.2,30.41,NE,50,1.0,3.0,70,-99.99,,,0.00,1-wire,2013-09-16 15:15:00,
2013-09-16 10:21:00,54.2,44.9,30.41,NE,50,3.0,6.0,71,-99.99,,,0.00,1-wire,2013-09-16 15:21:00,
2013-09-16 10:26:00,54.5,44.4,30.41,NE,50,1.0,3.0,69,-99.99,,,0.00,1-wire,2013-09-16 15:26:00,
2013-09-16 10:31:00,54.9,45.0,30.41,NE,50,2.0,6.0,69,-99.99,,,0.00,1-wire,2013-09-16 15:31:00,
2013-09-16 10:36:00,54.7,44.3,30.41,NE,50,2.0,6.0,68,-99.99,,,0.00,1-wire,2013-09-16 15:36:00,
2013-09-16 10:41:00,55.4,44.6,30.41,NE,50,3.0,6.0,67,-99.99,,,0.00,1-wire,2013-09-16 15:41:00,
2013-09-16 10:47:00,56.5,45.6,30.40,NE,50,0.0,0.0,67,-99.99,,,0.00,1-wire,2013-09-16 15:47:00,
2013-09-16 10:53:00,56.8,46.0,30.40,NE,40,0.0,3.0,67,-99.99,,,0.00,1-wire,2013-09-16 15:53:00,
2013-09-16 10:58:00,57.0,45.8,30.40,NE,40,2.0,3.0,66,-99.99,,,0.00,1-wire,2013-09-16 15:58:00,
2013-09-16 11:03:00,56.8,45.4,30.40,NE,40,1.0,3.0,66,-99.99,,,0.00,1-wire,2013-09-16 16:03:00,
2013-09-16 11:08:00,57.7,46.1,30.40,NE,56,1.0,3.0,65,-99.99,,,0.00,1-wire,2013-09-16 16:08:00,
2013-09-16 11:13:00,58.0,46.3,30.40,NE,56,1.0,3.0,65,-99.99,,,0.00,1-wire,2013-09-16 16:13:00,
2013-09-16 11:18:00,57.8,46.0,30.40,NE,56,0.0,3.0,65,-99.99,,,0.00,1-wire,2013-09-16 16:18:00,
2013-09-16 11:24:00,57.6,46.0,30.40,NE,34,2.0,9.0,65,-99.99,,,0.00,1-wire,2013-09-16 16:24:00,
2013-09-16 11:29:00,57.4,46.2,30.40,NE,34,0.0,3.0,66,-99.99,,,0.00,1-wire,2013-09-16 16:29:00,
2013-09-16 11:34:00,56.6,45.7,30.40,NE,34,3.0,9.0,67,-99.99,,,0.00,1-wire,2013-09-16 16:34:00,
2013-09-16 11:39:00,57.0,46.8,30.40,North,5,1.0,3.0,69,-99.99,,,0.00,1-wire,2013-09-16 16:39:00,
2013-09-16 11:44:00,57.2,46.2,30.40,North,5,0.0,3.0,67,-99.99,,,0.00,1-wire,2013-09-16 16:44:00,
2013-09-16 11:49:00,57.6,46.4,30.40,North,5,0.0,0.0,66,-99.99,,,0.00,1-wire,2013-09-16 16:49:00,
2013-09-16 11:54:00,57.9,47.0,30.40,NE,44,1.0,3.0,67,-99.99,,,0.00,1-wire,2013-09-16 16:54:00,
2013-09-16 11:59:00,57.7,46.7,30.40,NE,44,1.0,5.0,67,-99.99,,,0.00,1-wire,2013-09-16 16:59:00,
2013-09-16 12:04:00,57.3,45.7,30.40,NE,44,4.0,6.0,65,-99.99,,,0.00,1-wire,2013-09-16 17:04:00,
2013-09-16 12:09:00,58.0,45.7,30.40,NNE,31,1.0,6.0,64,-99.99,,,0.00,1-wire,2013-09-16 17:09:00,
2013-09-16 12:14:00,58.7,47.5,30.40,NNE,31,0.0,3.0,66,-99.99,,,0.00,1-wire,2013-09-16 17:14:00,
2013-09-16 12:19:00,58.7,47.2,30.40,NNE,31,1.0,3.0,66,-99.99,,,0.00,1-wire,2013-09-16 17:19:00,
2013-09-16 12:24:00,58.8,46.3,30.40,ENE,69,0.0,3.0,63,-99.99,,,0.00,1-wire,2013-09-16 17:24:00,
2013-09-16 12:29:00,59.8,47.1,30.41,ENE,69,2.0,6.0,63,-99.99,,,0.00,1-wire,2013-09-16 17:29:00,
2013-09-16 12:34:00,60.7,47.9,30.40,ENE,69,0.0,3.0,63,-99.99,,,0.00,1-wire,2013-09-16 17:34:00,
2013-09-16 12:39:00,60.1,46.9,30.40,ENE,66,0.0,3.0,62,-99.99,,,0.00,1-wire,2013-09-16 17:39:00,
2013-09-16 12:44:00,60.0,46.8,30.40,ENE,66,3.0,9.0,62,-99.99,,,0.00,1-wire,2013-09-16 17:44:00,
2013-09-16 12:49:00,60.8,46.8,30.40,ENE,66,3.0,6.0,60,-99.99,,,0.00,1-wire,2013-09-16 17:49:00,
2013-09-16 12:54:00,61.1,47.5,30.40,NE,56,2.0,6.0,61,-99.99,,,0.00,1-wire,2013-09-16 17:54:00,
2013-09-16 12:59:00,61.1,46.3,30.40,NE,56,1.0,3.0,58,-99.99,,,0.00,1-wire,2013-09-16 17:59:00,
2013-09-16 13:04:00,61.8,47.3,30.40,NE,56,1.0,3.0,59,-99.99,,,0.00,1-wire,2013-09-16 18:04:00,
2013-09-16 13:09:00,61.4,46.7,30.40,ENE,78,2.0,6.0,58,-99.99,,,0.00,1-wire,2013-09-16 18:09:00,
2013-09-16 13:14:00,61.5,46.0,30.40,ENE,78,3.0,6.0,57,-99.99,,,0.00,1-wire,2013-09-16 18:14:00,
2013-09-16 13:19:00,61.5,46.0,30.39,ENE,78,3.0,9.0,57,-99.99,,,0.00,1-wire,2013-09-16 18:19:00,
2013-09-16 13:24:00,61.4,45.4,30.39,East,82,2.0,6.0,56,-99.99,,,0.00,1-wire,2013-09-16 18:24:00,
2013-09-16 13:29:00,62.5,46.2,30.39,East,82,0.0,3.0,55,-99.99,,,0.00,1-wire,2013-09-16 18:29:00,
2013-09-16 13:34:00,62.9,47.9,30.39,East,82,4.0,9.0,58,-99.99,,,0.00,1-wire,2013-09-16 18:34:00,
2013-09-16 13:39:00,62.8,45.4,30.38,ENE,72,0.0,3.0,53,-99.99,,,0.00,1-wire,2013-09-16 18:39:00,
2013-09-16 13:44:00,63.2,46.8,30.38,ENE,72,3.0,9.0,55,-99.99,,,0.00,1-wire,2013-09-16 18:44:00,
2013-09-16 13:49:00,62.5,45.8,30.38,ENE,72,4.0,8.0,54,-99.99,,,0.00,1-wire,2013-09-16 18:49:00,
2013-09-16 13:54:00,63.1,47.2,30.38,East,79,0.0,3.0,56,-99.99,,,0.00,1-wire,2013-09-16 18:54:00,
2013-09-16 13:59:00,62.5,45.7,30.38,East,79,2.0,6.0,54,-99.99,,,0.00,1-wire,2013-09-16 18:59:00,
2013-09-16 14:04:00,62.5,45.7,30.38,East,79,1.0,3.0,54,-99.99,,,0.00,1-wire,2013-09-16 19:04:00,
2013-09-16 14:10:00,61.6,45.1,30.37,NE,56,2.0,6.0,55,-99.99,,,0.00,1-wire,2013-09-16 19:10:00,
2013-09-16 14:16:00,61.4,44.3,30.37,NE,56,3.0,6.0,53,-99.99,,,0.00,1-wire,2013-09-16 19:16:00,
2013-09-16 14:22:00,61.8,45.3,30.37,ENE,66,1.0,6.0,55,-99.99,,,0.00,1-wire,2013-09-16 19:22:00,
2013-09-16 14:27:00,62.2,46.4,30.37,ENE,66,3.0,8.0,56,-99.99,,,0.00,1-wire,2013-09-16 19:27:00,
2013-09-16 14:32:00,62.2,45.5,30.37,ENE,66,1.0,3.0,54,-99.99,,,0.00,1-wire,2013-09-16 19:32:00,
2013-09-16 14:37:00,62.3,45.1,30.37,ENE,59,2.0,6.0,53,-99.99,,,0.00,1-wire,2013-09-16 19:37:00,
2013-09-16 14:42:00,62.3,45.3,30.37,ENE,59,2.0,6.0,54,-99.99,,,0.00,1-wire,2013-09-16 19:42:00,
2013-09-16 14:48:00,62.5,45.8,30.36,ENE,59,3.0,9.0,54,-99.99,,,0.00,1-wire,2013-09-16 19:48:00,
2013-09-16 14:54:00,62.5,45.1,30.36,NE,50,3.0,8.0,53,-99.99,,,0.00,1-wire,2013-09-16 19:54:00,
2013-09-16 15:00:00,62.5,45.4,30.36,NE,50,2.0,6.0,54,-99.99,,,0.00,1-wire,2013-09-16 20:00:00,
2013-09-16 15:06:00,62.6,45.8,30.35,NE,51,0.0,0.0,54,-99.99,,,0.00,1-wire,2013-09-16 20:06:00,
2013-09-16 15:11:00,62.3,44.5,30.35,NE,51,5.0,9.0,52,-99.99,,,0.00,1-wire,2013-09-16 20:11:00,
2013-09-16 15:16:00,62.4,45.1,30.35,NE,51,0.0,0.0,53,-99.99,,,0.00,1-wire,2013-09-16 20:16:00,
2013-09-16 15:21:00,62.6,44.7,30.35,NE,38,2.0,6.0,52,-99.99,,,0.00,1-wire,2013-09-16 20:21:00,
2013-09-16 15:27:00,62.6,45.1,30.35,NE,38,2.0,6.0,53,-99.99,,,0.00,1-wire,2013-09-16 20:27:00,
2013-09-16 15:32:00,62.6,45.3,30.35,NE,38,1.0,6.0,53,-99.99,,,0.00,1-wire,2013-09-16 20:32:00,
2013-09-16 15:37:00,62.8,46.4,30.35,ENE,62,1.0,3.0,55,-99.99,,,0.00,1-wire,2013-09-16 20:37:00,
2013-09-16 15:42:00,62.8,45.3,30.35,ENE,62,1.0,3.0,53,-99.99,,,0.00,1-wire,2013-09-16 20:42:00,
2013-09-16 15:47:00,63.1,45.6,30.35,ENE,62,1.0,3.0,53,-99.99,,,0.00,1-wire,2013-09-16 20:47:00,
2013-09-16 15:53:00,62.9,45.7,30.34,ENE,66,1.0,3.0,53,-99.99,,,0.00,1-wire,2013-09-16 20:53:00,
2013-09-16 15:59:00,62.7,45.2,30.34,ENE,66,2.0,6.0,53,-99.99,,,0.00,1-wire,2013-09-16 20:59:00,
2013-09-16 16:04:00,62.8,45.3,30.34,ENE,66,0.0,3.0,53,-99.99,,,0.00,1-wire,2013-09-16 21:04:00,
2013-09-16 16:09:00,62.9,45.0,30.34,NE,49,2.0,8.0,52,-99.99,,,0.00,1-wire,2013-09-16 21:09:00,
2013-09-16 16:14:00,63.1,45.3,30.34,NE,49,4.0,9.0,52,-99.99,,,0.00,1-wire,2013-09-16 21:14:00,
2013-09-16 16:19:00,63.3,45.4,30.33,NE,49,2.0,6.0,52,-99.99,,,0.00,1-wire,2013-09-16 21:19:00,
2013-09-16 16:24:00,63.3,45.7,30.34,NE,55,2.0,6.0,53,-99.99,,,0.00,1-wire,2013-09-16 21:24:00,
2013-09-16 16:29:00,63.4,45.9,30.33,NE,55,3.0,8.0,53,-99.99,,,0.00,1-wire,2013-09-16 21:29:00,
2013-09-16 16:34:00,63.1,44.4,30.34,NE,55,1.0,6.0,51,-99.99,,,0.00,1-wire,2013-09-16 21:34:00,
2013-09-16 16:39:00,63.4,45.0,30.33,ENE,65,3.0,6.0,51,-99.99,,,0.00,1-wire,2013-09-16 21:39:00,
2013-09-16 16:44:00,63.5,46.4,30.33,ENE,65,2.0,6.0,54,-99.99,,,0.00,1-wire,2013-09-16 21:44:00,
2013-09-16 16:49:00,63.8,45.7,30.33,ENE,65,1.0,6.0,52,-99.99,,,0.00,1-wire,2013-09-16 21:49:00,
2013-09-16 16:54:00,63.6,45.0,30.34,East,85,0.0,3.0,51,-99.99,,,0.00,1-wire,2013-09-16 21:54:00,
2013-09-16 16:59:00,63.8,45.5,30.33,East,85,2.0,6.0,51,-99.99,,,0.00,1-wire,2013-09-16 21:59:00,
2013-09-16 17:04:00,63.7,45.3,30.33,East,85,1.0,6.0,51,-99.99,,,0.00,1-wire,2013-09-16 22:04:00,
2013-09-16 17:09:00,63.7,45.1,30.33,NE,54,1.0,3.0,51,-99.99,,,0.00,1-wire,2013-09-16 22:09:00,
2013-09-16 17:14:00,64.1,46.8,30.34,NE,54,0.0,3.0,54,-99.99,,,0.00,1-wire,2013-09-16 22:14:00,
2013-09-16 17:19:00,63.8,45.0,30.33,NE,54,0.0,3.0,51,-99.99,,,0.00,1-wire,2013-09-16 22:19:00,
2013-09-16 17:24:00,63.7,45.9,30.33,NE,34,1.0,3.0,52,-99.99,,,0.00,1-wire,2013-09-16 22:24:00,
2013-09-16 17:29:00,63.4,45.8,30.33,NE,34,0.0,3.0,53,-99.99,,,0.00,1-wire,2013-09-16 22:29:00,
2013-09-16 17:34:00,63.3,45.5,30.33,NE,34,0.0,3.0,52,-99.99,,,0.00,1-wire,2013-09-16 22:34:00,
2013-09-16 17:39:00,63.0,45.9,30.33,ENE,73,0.0,3.0,54,-99.99,,,0.00,1-wire,2013-09-16 22:39:00,
2013-09-16 17:44:00,62.6,45.8,30.33,ENE,73,0.0,0.0,54,-99.99,,,0.00,1-wire,2013-09-16 22:44:00,
2013-09-16 17:49:00,62.3,45.6,30.32,ENE,73,1.0,3.0,54,-99.99,,,0.00,1-wire,2013-09-16 22:49:00,
2013-09-16 17:54:00,62.0,45.5,30.33,NE,42,1.0,3.0,55,-99.99,,,0.00,1-wire,2013-09-16 22:54:00,
2013-09-16 17:59:00,62.0,45.1,30.32,NE,42,0.0,3.0,54,-99.99,,,0.00,1-wire,2013-09-16 22:59:00,
2013-09-16 18:04:00,61.7,46.4,30.32,NE,42,0.0,0.0,57,-99.99,,,0.00,1-wire,2013-09-16 23:04:00,
2013-09-16 18:09:00,61.6,45.4,30.32,East,94,0.0,3.0,55,-99.99,,,0.00,1-wire,2013-09-16 23:09:00,
2013-09-16 18:14:00,61.4,45.6,30.32,East,94,1.0,3.0,56,-99.99,,,0.00,1-wire,2013-09-16 23:14:00,
2013-09-16 18:20:00,61.1,45.7,30.32,East,94,0.0,0.0,57,-99.99,,,0.00,1-wire,2013-09-16 23:20:00,
2013-09-16 18:26:00,60.7,45.7,30.32,ENE,68,0.0,3.0,58,-99.99,,,0.00,1-wire,2013-09-16 23:26:00,
2013-09-16 18:32:00,60.7,46.9,30.31,ENE,68,0.0,0.0,60,-99.99,,,0.00,1-wire,2013-09-16 23:32:00,
2013-09-16 18:38:00,60.1,45.8,30.31,ENE,70,0.0,0.0,59,-99.99,,,0.00,1-wire,2013-09-16 23:38:00,
2013-09-16 18:44:00,59.3,46.3,30.31,ENE,70,0.0,3.0,62,-99.99,,,0.00,1-wire,2013-09-16 23:44:00,
2013-09-16 18:50:00,59.6,46.4,30.31,ENE,70,0.0,0.0,62,-99.99,,,0.00,1-wire,2013-09-16 23:50:00,
2013-09-16 18:56:00,58.8,46.2,30.31,ENE,65,0.0,3.0,63,-99.99,,,0.00,1-wire,2013-09-16 23:56:00,
2013-09-16 19:02:00,58.6,46.4,30.31,ENE,65,0.0,0.0,64,-99.99,,,0.00,1-wire,2013-09-17 00:02:00,
2013-09-16 19:08:00,58.3,46.3,30.31,ENE,69,0.0,0.0,64,-99.99,,,0.00,1-wire,2013-09-17 00:08:00,
2013-09-16 19:14:00,57.8,46.3,30.31,ENE,69,0.0,0.0,65,-99.99,,,0.00,1-wire,2013-09-17 00:14:00,
2013-09-16 19:20:00,57.3,46.4,30.31,ENE,69,0.0,0.0,67,-99.99,,,0.00,1-wire,2013-09-17 00:20:00,
2013-09-16 19:26:00,57.2,46.8,30.31,ENE,72,0.0,0.0,68,-99.99,,,0.00,1-wire,2013-09-17 00:26:00,
2013-09-16 19:32:00,56.9,46.4,30.31,ENE,72,0.0,0.0,68,-99.99,,,0.00,1-wire,2013-09-17 00:32:00,
2013-09-16 19:38:00,56.9,46.8,30.32,ENE,78,0.0,0.0,69,-99.99,,,0.00,1-wire,2013-09-17 00:38:00,
2013-09-16 19:44:00,56.2,46.8,30.31,ENE,78,0.0,0.0,71,-99.99,,,0.00,1-wire,2013-09-17 00:44:00,
2013-09-16 19:50:00,55.9,47.0,30.32,ENE,78,0.0,0.0,72,-99.99,,,0.00,1-wire,2013-09-17 00:50:00,
2013-09-16 19:56:00,55.7,46.8,30.32,ENE,71,0.0,0.0,72,-99.99,,,0.00,1-wire,2013-09-17 00:56:00,
2013-09-16 20:02:00,55.1,46.5,30.32,ENE,71,0.0,0.0,73,-99.99,,,0.00,1-wire,2013-09-17 01:02:00,
2013-09-16 20:08:00,54.8,46.5,30.32,ENE,77,0.0,0.0,73,-99.99,,,0.00,1-wire,2013-09-17 01:08:00,
2013-09-16 20:14:00,54.7,46.6,30.32,ENE,77,0.0,0.0,74,-99.99,,,0.00,1-wire,2013-09-17 01:14:00,
2013-09-16 20:20:00,54.6,46.5,30.33,ENE,77,0.0,0.0,74,-99.99,,,0.00,1-wire,2013-09-17 01:20:00,
2013-09-16 20:26:00,54.2,46.4,30.33,NE,47,0.0,3.0,75,-99.99,,,0.00,1-wire,2013-09-17 01:26:00,
2013-09-16 20:32:00,53.7,46.6,30.33,NE,47,0.0,3.0,77,-99.99,,,0.00,1-wire,2013-09-17 01:32:00,
2013-09-16 20:38:00,53.9,46.6,30.33,ENE,71,0.0,0.0,76,-99.99,,,0.00,1-wire,2013-09-17 01:38:00,
2013-09-16 20:44:00,54.0,46.6,30.33,ENE,71,0.0,0.0,76,-99.99,,,0.00,1-wire,2013-09-17 01:44:00,
2013-09-16 20:50:00,53.8,46.6,30.33,ENE,71,0.0,3.0,76,-99.99,,,0.00,1-wire,2013-09-17 01:50:00,
2013-09-16 20:56:00,54.4,46.8,30.33,ENE,65,1.0,3.0,75,-99.99,,,0.00,1-wire,2013-09-17 01:56:00,
2013-09-16 21:02:00,54.6,47.0,30.33,ENE,65,1.0,3.0,76,-99.99,,,0.00,1-wire,2013-09-17 02:02:00,
2013-09-16 21:08:00,54.6,47.1,30.34,ESE,118,0.0,3.0,76,-99.99,,,0.00,1-wire,2013-09-17 02:08:00,
2013-09-16 21:14:00,53.9,46.6,30.33,ESE,118,0.0,3.0,76,-99.99,,,0.00,1-wire,2013-09-17 02:14:00,
2013-09-16 21:19:00,53.7,46.4,30.33,ESE,118,3.0,11.0,76,-99.99,,,0.00,1-wire,2013-09-17 02:19:00,
2013-09-16 21:24:00,54.0,46.5,30.33,ESE,112,0.0,0.0,76,-99.99,,,0.00,1-wire,2013-09-17 02:24:00,
2013-09-16 21:29:00,54.2,46.4,30.34,ESE,112,1.0,3.0,75,-99.99,,,0.00,1-wire,2013-09-17 02:29:00,
2013-09-16 21:34:00,54.4,46.8,30.34,ESE,112,1.0,3.0,75,-99.99,,,0.00,1-wire,2013-09-17 02:34:00,
2013-09-16 21:39:00,53.9,46.5,30.33,ESE,111,0.0,3.0,76,-99.99,,,0.00,1-wire,2013-09-17 02:39:00,
2013-09-16 21:44:00,53.8,46.4,30.33,ESE,111,1.0,6.0,76,-99.99,,,0.00,1-wire,2013-09-17 02:44:00,
2013-09-16 21:49:00,53.5,45.9,30.33,ESE,111,0.0,3.0,75,-99.99,,,0.00,1-wire,2013-09-17 02:49:00,
2013-09-16 21:54:00,53.4,45.7,30.34,ESE,108,2.0,9.0,75,-99.99,,,0.00,1-wire,2013-09-17 02:54:00,
2013-09-16 21:59:00,53.2,45.9,30.33,ESE,108,0.0,3.0,76,-99.99,,,0.00,1-wire,2013-09-17 02:59:00,
2013-09-16 22:04:00,53.4,46.1,30.34,ESE,108,1.0,3.0,76,-99.99,,,0.00,1-wire,2013-09-17 03:04:00,
2013-09-16 22:09:00,53.1,46.0,30.34,ESE,116,0.0,0.0,77,-99.99,,,0.00,1-wire,2013-09-17 03:09:00,
2013-09-16 22:14:00,52.6,45.5,30.34,ESE,116,0.0,3.0,77,-99.99,,,0.00,1-wire,2013-09-17 03:14:00,
2013-09-16 22:19:00,52.4,45.8,30.34,ESE,116,0.0,0.0,78,-99.99,,,0.00,1-wire,2013-09-17 03:19:00,
2013-09-16 22:24:00,52.1,45.5,30.34,ESE,121,0.0,3.0,78,-99.99,,,0.00,1-wire,2013-09-17 03:24:00,
2013-09-16 22:29:00,52.1,45.9,30.34,ESE,121,1.0,6.0,79,-99.99,,,0.00,1-wire,2013-09-17 03:29:00,
2013-09-16 22:34:00,52.0,45.7,30.35,ESE,121,0.0,0.0,79,-99.99,,,0.00,1-wire,2013-09-17 03:34:00,
2013-09-16 22:39:00,51.9,46.0,30.34,ESE,120,0.0,3.0,80,-99.99,,,0.00,1-wire,2013-09-17 03:39:00,
2013-09-16 22:44:00,51.6,45.7,30.34,ESE,120,0.0,3.0,80,-99.99,,,0.00,1-wire,2013-09-17 03:44:00,
2013-09-16 22:49:00,51.4,45.6,30.34,ESE,120,1.0,3.0,80,-99.99,,,0.00,1-wire,2013-09-17 03:49:00,
2013-09-16 22:54:00,51.2,45.3,30.34,ESE,117,3.0,9.0,80,-99.99,,,0.00,1-wire,2013-09-17 03:54:00,
2013-09-16 22:59:00,51.3,45.2,30.34,ESE,117,0.0,0.0,80,-99.99,,,0.00,1-wire,2013-09-17 03:59:00,
2013-09-16 23:01:00,51.3,45.4,30.34,ESE,117,0.0,0.0,80,-99.99,,,0.00,1-wire,2013-09-17 04:01:00,
2013-09-16 23:02:00,51.2,45.4,30.34,ESE,117,0.0,3.0,81,-99.99,,,0.00,1-wire,2013-09-17 04:02:00,
2013-09-16 23:03:00,51.1,45.4,30.34,ESE,117,0.0,0.0,81,-99.99,,,0.00,1-wire,2013-09-17 04:03:00,
2013-09-16 23:04:00,51.2,45.4,30.34,ESE,117,1.0,6.0,81,-99.99,,,0.00,1-wire,2013-09-17 04:04:00,
2013-09-16 23:05:00,50.9,45.1,30.34,ESE,117,1.0,3.0,81,-99.99,,,0.00,1-wire,2013-09-17 04:05:00,
2013-09-16 23:08:00,51.0,45.4,30.34,ESE,117,1.0,6.0,81,-99.99,,,0.00,1-wire,2013-09-17 04:08:00,
2013-09-16 23:13:00,51.1,45.3,30.34,ESE,117,0.0,0.0,80,-99.99,,,0.00,1-wire,2013-09-17 04:13:00,
2013-09-16 23:18:00,51.2,45.3,30.34,ESE,117,1.0,5.0,80,-99.99,,,0.00,1-wire,2013-09-17 04:18:00,
2013-09-16 23:23:00,51.0,45.2,30.34,East,99,0.0,0.0,80,-99.99,,,0.00,1-wire,2013-09-17 04:23:00,
2013-09-16 23:28:00,51.0,44.9,30.34,East,99,0.0,3.0,80,-99.99,,,0.00,1-wire,2013-09-17 04:28:00,
2013-09-16 23:33:00,50.8,44.8,30.34,East,99,0.0,0.0,80,-99.99,,,0.00,1-wire,2013-09-17 04:33:00,
2013-09-16 23:38:00,50.7,44.7,30.34,ESE,108,0.0,0.0,80,-99.99,,,0.00,1-wire,2013-09-17 04:38:00,
2013-09-16 23:43:00,50.9,44.8,30.34,ESE,108,0.0,0.0,80,-99.99,,,0.00,1-wire,2013-09-17 04:43:00,
2013-09-16 23:48:00,50.9,44.8,30.34,ESE,108,0.0,3.0,80,-99.99,,,0.00,1-wire,2013-09-17 04:48:00,
2013-09-16 23:53:00,50.9,44.9,30.34,ESE,108,0.0,0.0,80,-99.99,,,0.00,1-wire,2013-09-17 04:53:00,
2013-09-16 23:58:00,50.5,44.6,30.34,ESE,108,0.0,0.0,80,-99.99,,,0.00,1-wire,2013-09-17 04:58:00,